Forecast Directory
U.S. Alerts
El Dorado Weather Logo
U.S. Radar Loop Conditions Map

U.S. Color Satellite North America Color Infrared Animated Satellite Loop

Interactive Wx Map Live U.S. Google Map Radar Thumbnail Image

US Precipitation 1 day, 24 hour precipitation map

US Temperatures US Conditions Map

US Climate Data US Conditions Map


NOAA NWS Hourly Roundups by Site
Regional Weather Roundup for Sacramento, CA
Select Site:  

000
ASUS46 KSTO 100315
RWRCA

NORTHERN AND CENTRAL CA REGIONAL WEATHER ROUNDUP
NATIONAL WEATHER SERVICE SACRAMENTO CA
800 PM PDT THU APR 09 2020

NOTE: FAIR INDICATES FEW OR NO CLOUDS BELOW 12,000 FEET WITH NO
SIGNIFICANT WEATHER AND/OR OBSTRUCTIONS TO VISIBILITY.

CAZ001-003-100400-
NORTHWEST AREA

CITY           SKY/WX    TMP DP  RH WIND       PRES   REMARKS
CRESCENT CITY  CLOUDY    53  49  86 S7        30.06S
UKIAH          CLOUDY    58  49  72 CALM      30.01R
$$

CAZ006-505>513-100400-
BAY AREA

CITY           SKY/WX    TMP DP  RH WIND       PRES   REMARKS
SANTA ROSA     CLOUDY    59  51  75 W5        30.02R
SAN RAFAEL     N/A       MM  MM  MM MISG
NAPA           FAIR      55  46  71 E5        30.02R
CONCORD        FAIR      59  47  64 E5        30.01R
OAKLAND CITY   N/A       63  MM  MM MISG
OAKLAND        MOCLDY    59  50  72 NW9       30.03R
SAN FRAN CITY  N/A       57  MM  70 MISG
SAN FRAN ARPT  FAIR      59  49  69 W8        30.01S
LIVERMORE      CLOUDY    58  48  69 NE7       30.01R
HAYWARD        FAIR      57  50  77 NW9       30.02R
SAN JOSE ARPT  MOCLDY    60  49  66 NW7       30.01R
$$
CAZ034-037-514>518-100400-
CENTRAL COAST

CITY           SKY/WX    TMP DP  RH WIND       PRES   REMARKS
WATSONVILLE    CLOUDY    54  51  90 W10       30.04R
SALINAS        CLOUDY    56  50  80 NW9       30.02R
MONTEREY       CLOUDY    59  51  75 W3        30.03R
SAN LUIS OBISP CLOUDY    55  46  71 CALM      30.04R
SANTA MARIA    MOCLDY    51  45  79 SE5       30.04R
$$
CAZ015-016-100400-
NORTHERN SACRAMENTO VALLEY

CITY           SKY/WX    TMP DP  RH WIND       PRES   REMARKS
REDDING        CLOUDY    60  51  72 S7        29.99R
RED BLUFF      CLOUDY    60  51  72 SE8       30.01R
OROVILLE       CLOUDY    61  48  62 E6        30.03R
$$
CAZ016>018-100400-
SOUTHERN SACRAMENTO VALLEY

CITY           SKY/WX    TMP DP  RH WIND       PRES   REMARKS
AUBURN         MOCLDY    50  46  87 CALM      30.03S
BEALE AFB      CLOUDY    59  49  69 SE3       30.00F
LINCOLN        CLOUDY    59  48  67 CALM      30.01F
MARYSVILLE     CLOUDY    60  49  66 SE5       30.02S
SAC INTL ARPT  MOCLDY    59  49  69 SW5       30.02R
MATHER AIRPORT NOT AVBL
DOWNTOWN SAC   N/A       60  MM  MM MISG
SAC EXEC ARPT  CLOUDY    61  47  59 SE7       30.02S
VACAVILLE      FAIR      53  46  77 CALM      30.03S
TRAVIS AFB     FAIR      57  47  69 CALM      30.03R
$$
CAZ019>021-100400-
SAN JOAQUIN VALLEY

CITY           SKY/WX    TMP DP  RH WIND       PRES   REMARKS
STOCKTON       LGT RAIN  59  51  75 SE7       30.02R
MODESTO        MOCLDY    59  48  67 S5        30.03R
MERCED         FAIR      54  49  83 SE3       30.03S
LEMOORE        CLOUDY    53  47  79 SE10      30.05R
FRESNO         MOCLDY    56  45  66 SE6       30.05S
HANFORD        FAIR      53  49  86 S3        30.06R
PORTERVILLE    FAIR      52  46  80 NW6       30.06R
BAKERSFIELD    CLOUDY    53  47  79 NW3       30.04S
$$
CAZ011-012-071-100400-
NORTHERN MOUNTAINS

CITY           SKY/WX    TMP DP  RH WIND       PRES   REMARKS
YREKA          FAIR      67  35  30 N12       29.92R
MOUNT SHASTA   FAIR      51  44  77 CALM      29.97R
ALTURAS        FAIR      61  26  26 N9        29.94R
$$
CAZ011-012-071-100400-
SIERRA NEVADA MTNS

CITY           SKY/WX    TMP DP  RH WIND       PRES   REMARKS
BLUE CANYON    FOG       38  37  97 CALM      30.04S VSB<1/4
TRUCKEE        CLOUDY    41  32  70 CALM      30.02S
TAHOE VLY ARPT LGT RAIN  38  35  89 VRB3      30.02S
MAMMOTH LAKES  FAIR      32  23  69 SE7       30.05R WCI  26
$$


 

View Past Reports for Sacramento, CA.

Products Courtesy of NOAA-NWS
NWS Information Parsing Script by Ken True at Saratoga Weather - Script by SE Lincoln Weather.



Contact Us | Mobile
Never base any life decisions on weather information from this site or anywhere over the Internet.
Site is dedicated to our Lord & Savior Jesus Christ | Random Quotes of Jesus

Go to your secret place during pandemics and pray Psalm 91 & make it personal.
Copyright © 2020 El Dorado Weather, Inc. | Site Designed By:  El Dorado Weather